Date String (YYYY-MM-DD hh:mm:ss) UTC,Instrument flags,Ambient pressure (hPa),Sample flow (lpm),Bypass flow (lpm),Sample temperature (°C),Ambient temperature (°C),ASC tube jacket temperature (°C),LED temperature (°C),Box temperature (°C),Sample RH (%),Span deviation,Mass concentration (μg/m³),Mass concentration (μg/m³),Mass concentration (μg/m³)
DateTimeUTC,F1_M11,P_M11,Q1_M11,Q2_M11,T1_M11,T2_M11,T3_M11,T4_M11,T5_M11,U1_M11,ZSPAN_M11,X0_M11,X2_M11,X1_M11
2021-09-08 11:00:00,,0832.0,5.00,0.00,30.0,29.0,00.0,39.1,31.7,18.0,0001.8,0058.04,0037.90,0035.22
2021-09-08 11:01:00,,0831.9,5.00,0.00,30.0,29.0,00.0,39.2,31.8,17.9,0001.7,0058.53,0037.79,0035.03
2021-09-08 11:02:00,,0831.9,5.02,0.00,30.1,29.1,00.0,39.2,31.8,17.7,0001.7,0057.42,0037.66,0034.83
2021-09-08 11:03:00,,0832.0,5.00,0.00,30.1,29.1,00.0,39.2,31.8,17.3,0001.5,0056.68,0037.49,0034.67
2021-09-08 11:04:00,,0832.0,5.00,0.00,30.1,29.1,00.0,39.2,31.9,18.2,0001.5,0056.44,0037.28,0034.49
2021-09-08 11:05:00,,0832.0,5.00,0.00,30.1,29.2,00.0,39.2,31.9,18.2,0001.5,0056.22,0037.07,0034.31
2021-09-08 11:06:00,,0832.0,4.99,0.00,30.1,29.2,00.0,39.2,31.9,18.0,0001.6,0056.51,0036.85,0034.13
2021-09-08 11:07:00,,0832.0,5.01,0.00,30.1,29.2,00.0,39.2,31.9,18.0,0001.7,0057.61,0036.80,0034.06
2021-09-08 11:08:00,,0832.0,5.00,0.00,30.1,29.2,00.0,39.2,31.9,18.1,0001.8,0057.71,0036.84,0034.05
2021-09-08 11:09:00,,0832.0,5.01,0.00,30.1,29.2,00.0,39.2,31.9,18.5,0001.7,0058.49,0036.75,0033.98
2021-09-08 11:10:00,,0831.9,4.99,0.00,30.1,29.2,00.0,39.2,31.9,18.6,0001.8,0058.57,0036.73,0033.95
2021-09-08 11:11:00,,0831.9,5.00,0.00,30.1,29.2,00.0,39.2,31.9,18.3,0001.7,0058.49,0036.68,0033.92
2021-09-08 11:12:00,,0831.9,5.00,0.00,30.1,29.2,00.0,39.3,31.9,18.3,0001.8,0057.34,0036.68,0033.95
2021-09-08 11:13:00,,0831.9,5.01,0.00,30.2,29.3,00.0,39.3,31.9,17.3,0001.8,0057.22,0036.73,0034.00
2021-09-08 11:14:00,,0831.9,4.99,0.00,30.2,29.3,00.0,39.3,31.9,17.1,0001.9,0057.97,0036.78,0034.03
2021-09-08 11:15:00,,0832.0,5.01,0.00,30.2,29.3,00.0,39.3,32.0,16.7,0001.7,0058.38,0036.95,0034.17
2021-09-08 11:16:00,,0831.9,5.01,0.00,30.2,29.3,00.0,39.3,31.9,18.1,0001.7,0057.87,0037.05,0034.26
2021-09-08 11:17:00,,0832.0,4.99,0.00,30.2,29.3,00.0,39.3,31.9,18.0,0001.6,0057.72,0037.15,0034.26
2021-09-08 11:18:00,,0832.0,5.02,0.00,30.2,29.3,00.0,39.3,31.9,17.2,0001.6,0056.18,0037.25,0034.33
2021-09-08 11:19:00,,0831.9,4.99,0.00,30.2,29.3,00.0,39.3,31.9,17.9,0001.6,0055.70,0037.25,0034.33
2021-09-08 11:20:00,,0832.0,4.99,0.00,30.2,29.3,00.0,39.3,32.0,17.9,0001.7,0054.86,0037.24,0034.31
2021-09-08 11:21:00,,0831.9,5.01,0.00,30.2,29.3,00.0,39.3,32.0,17.7,0001.6,0055.36,0037.30,0034.36
2021-09-08 11:22:00,,0832.0,5.00,0.00,30.2,29.3,00.0,39.3,31.9,17.7,0001.7,0056.66,0037.30,0034.39
2021-09-08 11:23:00,,0832.0,5.01,0.00,30.2,29.3,00.0,39.3,32.0,18.0,0001.6,0057.36,0037.23,0034.37
2021-09-08 11:24:00,,0832.0,5.01,0.00,30.2,29.3,00.0,39.3,32.0,17.9,0001.7,0056.96,0037.11,0034.31
2021-09-08 11:25:00,,0832.0,4.99,0.00,30.2,29.3,00.0,39.3,31.9,17.8,0001.6,0056.51,0037.06,0034.31
2021-09-08 11:26:00,,0832.0,5.01,0.00,30.2,29.3,00.0,39.3,31.9,17.9,0001.5,0056.61,0036.96,0034.20
2021-09-08 11:27:00,,0832.1,5.00,0.00,30.2,29.3,00.0,39.3,31.9,18.0,0001.6,0056.96,0037.03,0034.18
2021-09-08 11:28:00,,0832.1,5.00,0.00,30.2,29.3,00.0,39.3,31.9,18.1,0001.9,0057.20,0037.04,0034.26
2021-09-08 11:29:00,,0832.1,5.00,0.00,30.2,29.2,00.0,39.3,32.0,18.0,0001.9,0057.73,0036.96,0034.19
2021-09-08 11:30:00,,0832.1,5.01,0.00,30.2,29.3,00.0,39.3,31.9,17.9,0001.8,0057.12,0036.95,0034.19
2021-09-08 11:31:00,,0832.1,5.00,0.00,30.2,29.3,00.0,39.3,31.9,18.2,0001.7,0056.48,0036.98,0034.21
2021-09-08 11:32:00,,0832.1,4.99,0.00,30.2,29.3,00.0,39.3,31.9,18.2,0001.8,0055.88,0037.01,0034.22
2021-09-08 11:33:00,,0832.1,5.01,0.00,30.2,29.3,00.0,39.3,32.0,18.2,0001.9,0055.59,0037.15,0034.24
2021-09-08 11:34:00,,0832.1,4.99,0.00,30.2,29.3,00.0,39.3,31.9,17.9,0001.9,0055.04,0037.29,0034.33
2021-09-08 11:35:00,,0832.1,5.00,0.00,30.2,29.3,00.0,39.3,31.9,17.8,0001.9,0055.40,0037.35,0034.39
2021-09-08 11:36:00,,0832.1,4.99,0.00,30.2,29.3,00.0,39.3,31.9,17.8,0002.2,0055.96,0037.37,0034.40
2021-09-08 11:37:00,,0832.1,5.01,0.00,30.2,29.3,00.0,39.3,32.0,18.0,0002.4,0056.45,0037.42,0034.44
2021-09-08 11:38:00,,0832.0,5.00,0.00,30.2,29.3,00.0,39.3,32.0,18.3,0002.5,0057.10,0037.38,0034.45
2021-09-08 11:39:00,,0832.1,4.98,0.00,30.2,29.3,00.0,39.3,31.9,18.1,0002.5,0056.07,0037.37,0034.49
2021-09-08 11:40:00,,0832.1,5.00,0.00,30.2,29.3,00.0,39.3,31.9,17.8,0002.5,0055.56,0037.39,0034.52
2021-09-08 11:41:00,,0832.1,5.00,0.00,30.2,29.3,00.0,39.3,31.9,18.4,0002.7,0056.57,0037.48,0034.57
2021-09-08 11:42:00,,0832.0,5.00,0.00,30.2,29.3,00.0,39.3,31.9,18.3,0002.7,0057.09,0037.52,0034.60
2021-09-08 11:43:00,,0832.0,4.99,0.00,30.2,29.3,00.0,39.3,31.9,17.3,0002.7,0058.25,0037.52,0034.61
2021-09-08 11:44:00,,0832.0,5.01,0.00,30.2,29.4,00.0,39.3,31.9,16.9,0002.7,0057.24,0037.53,0034.70
2021-09-08 11:45:00,,0832.0,5.01,0.00,30.2,29.4,00.0,39.3,31.9,16.7,0002.7,0057.01,0037.52,0034.73
2021-09-08 11:46:00,,0832.1,5.00,0.00,30.2,29.4,00.0,39.3,32.0,16.6,0002.6,0056.69,0037.62,0034.83
2021-09-08 11:47:00,,0832.1,5.00,0.00,30.3,29.3,00.0,39.4,31.9,17.0,0002.5,0056.09,0037.73,0034.91
2021-09-08 11:48:00,,0832.1,5.00,0.00,30.2,27.5,00.0,39.3,31.5,17.7,0002.4,0055.08,0037.80,0034.96
2021-09-08 11:49:00,,0832.1,5.00,0.00,30.0,26.4,00.0,39.3,31.1,18.5,0002.2,0053.48,0037.75,0034.97
2021-09-08 11:50:00,,0832.1,5.01,0.00,29.9,26.5,00.0,39.2,31.2,18.0,0002.0,0053.61,0037.80,0034.98
2021-09-08 11:51:00,,0832.1,5.00,0.00,29.8,26.9,00.0,39.2,31.2,18.5,0001.9,0053.54,0037.66,0034.91
2021-09-08 11:52:00,,0832.1,5.00,0.00,29.8,27.3,00.0,39.1,31.2,19.0,0001.9,0054.17,0037.52,0034.81
2021-09-08 11:53:00,,0832.1,4.99,0.00,29.8,27.6,00.0,39.1,31.3,19.6,0002.1,0054.11,0037.36,0034.64
2021-09-08 11:54:00,,0832.1,5.00,0.00,29.8,27.9,00.0,39.1,31.3,19.7,0002.3,0053.26,0037.15,0034.45
2021-09-08 11:55:00,,0832.1,5.01,0.00,29.8,28.1,00.0,39.1,31.4,19.6,0002.4,0053.20,0036.92,0034.22
2021-09-08 11:56:00,,0832.1,5.00,0.00,29.8,28.3,00.0,39.0,31.4,19.5,0002.3,0054.02,0036.79,0033.95
2021-09-08 11:57:00,,0832.1,5.02,0.00,29.8,28.4,00.0,39.0,31.5,19.5,0002.4,0054.95,0036.45,0033.62
2021-09-08 11:58:00,,0832.0,5.00,0.00,29.8,28.5,00.0,39.0,31.5,19.5,0002.5,0054.78,0036.07,0033.29
2021-09-08 11:59:00,,0832.1,4.99,0.00,29.9,28.6,00.0,39.0,31.5,19.4,0002.5,0054.77,0035.72,0033.02
